TimeCST,TemperatureF,Dew PointF,Humidity,Sea Level PressureIn,VisibilityMPH,Wind Direction,Wind SpeedMPH,Gust SpeedMPH,PrecipitationIn,Events,Conditions,WindDirDegrees,DateUTC
12:53 AM,55.9,48.9,77,30.18,10.0,ENE,3.5,-,N/A,,Clear,70,2013-11-06 06:53:00
1:53 AM,57.0,50.0,77,30.17,10.0,Calm,Calm,-,N/A,,Mostly Cloudy,0,2013-11-06 07:53:00
2:53 AM,57.9,50.0,75,30.17,10.0,Calm,Calm,-,N/A,,Mostly Cloudy,0,2013-11-06 08:53:00
3:53 AM,60.1,52.0,75,30.17,10.0,East,5.8,-,N/A,,Overcast,90,2013-11-06 09:53:00
4:53 AM,60.1,54.0,80,30.17,10.0,East,4.6,-,N/A,,Mostly Cloudy,90,2013-11-06 10:53:00
5:53 AM,59.0,55.0,87,30.18,10.0,East,3.5,-,N/A,,Partly Cloudy,80,2013-11-06 11:53:00
6:53 AM,60.1,57.0,90,30.19,10.0,Calm,Calm,-,N/A,,Mostly Cloudy,0,2013-11-06 12:53:00
7:18 AM,62.6,57.2,82,30.20,10.0,East,4.6,-,N/A,,Overcast,100,2013-11-06 13:18:00
7:53 AM,64.0,57.9,80,30.21,10.0,East,5.8,-,N/A,,Overcast,80,2013-11-06 13:53:00
8:53 AM,68.0,60.1,76,30.21,10.0,East,9.2,-,N/A,,Overcast,90,2013-11-06 14:53:00
9:09 AM,69.8,60.8,73,30.22,10.0,East,4.6,21.9,N/A,,Overcast,100,2013-11-06 15:09:00
9:53 AM,72.0,61.0,68,30.20,10.0,Calm,Calm,-,N/A,,Mostly Cloudy,0,2013-11-06 15:53:00
10:53 AM,77.0,62.1,60,30.18,10.0,ESE,6.9,-,N/A,,Clear,110,2013-11-06 16:53:00
11:53 AM,79.0,62.1,56,30.15,10.0,SE,8.1,-,N/A,,Clear,130,2013-11-06 17:53:00
12:53 PM,79.0,62.1,56,30.12,10.0,Variable,6.9,-,N/A,,Scattered Clouds,0,2013-11-06 18:53:00
1:53 PM,80.1,62.1,54,30.11,10.0,SSE,3.5,-,N/A,,Overcast,150,2013-11-06 19:53:00
2:53 PM,82.9,63.0,51,30.10,10.0,Variable,3.5,-,N/A,,Overcast,0,2013-11-06 20:53:00
3:53 PM,80.1,61.0,52,30.09,10.0,SSW,4.6,-,N/A,,Mostly Cloudy,200,2013-11-06 21:53:00
4:53 PM,75.0,63.0,66,30.10,10.0,Calm,Calm,-,N/A,,Mostly Cloudy,0,2013-11-06 22:53:00
5:53 PM,70.0,63.0,78,30.11,10.0,Calm,Calm,-,N/A,,Clear,0,2013-11-06 23:53:00
6:53 PM,68.0,64.0,87,30.13,10.0,Calm,Calm,-,N/A,,Mostly Cloudy,0,2013-11-07 00:53:00
7:53 PM,68.0,64.0,87,30.12,10.0,Calm,Calm,-,N/A,,Mostly Cloudy,0,2013-11-07 01:53:00
8:53 PM,66.0,63.0,90,30.12,10.0,Calm,Calm,-,N/A,,Clear,0,2013-11-07 02:53:00
9:53 PM,64.0,62.1,93,30.11,9.0,Calm,Calm,-,N/A,,Clear,0,2013-11-07 03:53:00
10:53 PM,64.9,62.1,90,30.10,10.0,Calm,Calm,-,N/A,,Clear,0,2013-11-07 04:53:00
11:53 PM,64.0,62.1,93,30.09,10.0,Calm,Calm,-,N/A,,Clear,0,2013-11-07 05:53:00